| time (UTC) | temp C | wind direction | speed KPH | gust KPH | rain 1hr cm | rain 24hr cm | rain mn cm | humidity % | barometer mb |
| 20260507012740 | 12 | 52 | 4.8 | 6.4 | 0.00 | 0.00 | 0.00 | 93 | 1012.3 |
| 20260507011240 | 12 | 338 | 1.6 | 1.6 | 0.00 | 0.00 | 0.00 | 92 | 1012.5 |
| 20260507005740 | 12 | 333 | 1.6 | 3.2 | 0.00 | 0.00 | 0.00 | 92 | 1012.5 |
| 20260507004240 | 13 | 185 | 1.6 | 3.2 | 0.00 | 0.00 | 0.00 | 90 | 1012.6 |
| 20260507002739 | 12 | 74 | 3.2 | 3.2 | 0.00 | 0.00 | 0.00 | 92 | 1012.6 |
| 20260507001239 | 13 | 131 | 4.8 | 6.4 | 0.00 | 0.00 | 0.00 | 90 | 1012.4 |
| 20260506235739 | 13 | 345 | 1.6 | 3.2 | 0.00 | 0.00 | 0.00 | 91 | 1012.7 |
| 20260506234239 | 13 | 257 | 3.2 | 3.2 | 0.00 | 0.00 | 0.00 | 90 | 1012.6 |
| 20260506232739 | 12 | 321 | 1.6 | 3.2 | 0.00 | 0.00 | 0.00 | 91 | 1012.8 |
| 20260506231238 | 12 | 59 | 3.2 | 4.8 | 0.00 | 0.00 | 0.00 | 93 | 1012.6 |
| 20260506225738 | 13 | 163 | 4.8 | 4.8 | 0.00 | 0.00 | 0.00 | 91 | 1012.6 |
| 20260506224238 | 13 | 253 | 1.6 | 1.6 | 0.00 | 0.00 | 0.00 | 90 | 1012.8 |
| 20260506222738 | 12 | 64 | 3.2 | 3.2 | 0.00 | 0.00 | 0.00 | 91 | 1012.6 |
| 20260506221238 | 13 | 121 | 4.8 | 6.4 | 0.00 | 0.00 | 0.00 | 90 | 1012.6 |
| 20260506215737 | 13 | 177 | 3.2 | 3.2 | 0.00 | 0.00 | 3.63 | 90 | 1012.9 |
| 20260506214237 | 13 | 248 | 1.6 | 3.2 | 0.00 | 0.00 | 3.63 | 90 | 1012.7 |
| 20260506212737 | 13 | 197 | 6.4 | 9.7 | 0.00 | 0.00 | 3.63 | 91 | 1012.8 |
| 20260506211236 | 13 | 259 | 3.2 | 3.2 | 0.00 | 0.00 | 3.63 | 90 | 1012.6 |
| 20260506205736 | 13 | 269 | 0.0 | 0.0 | 0.00 | 0.00 | 3.63 | 92 | 1012.8 |
| 20260506204235 | 13 | 54 | 3.2 | 4.8 | 0.00 | 0.00 | 3.63 | 90 | 1012.7 |
| 20260506202735 | 13 | 263 | 0.0 | 0.0 | 0.00 | 0.00 | 3.63 | 92 | 1012.4 |
| 20260506201235 | 13 | 52 | 4.8 | 6.4 | 0.00 | 0.00 | 3.63 | 93 | 1012.3 |
| 20260506195735 | 13 | 253 | 1.6 | 3.2 | 0.00 | 0.00 | 3.63 | 92 | 1012.2 |
| 20260506194234 | 13 | 241 | 0.0 | 0.0 | 0.00 | 0.00 | 3.63 | 93 | 1012.1 |
| 20260506192734 | 13 | 267 | 1.6 | 4.8 | 0.00 | 0.00 | 3.63 | 93 | 1011.8 |
| 20260506191233 | 13 | 145 | 3.2 | 4.8 | 0.00 | 0.00 | 3.63 | 93 | 1011.5 |
| 20260506185733 | 13 | 248 | 3.2 | 4.8 | 0.00 | 0.00 | 3.63 | 93 | 1011.4 |
| 20260506184232 | 13 | 212 | 4.8 | 9.7 | 0.00 | 0.00 | 3.63 | 92 | 1011.3 |
| 20260506182732 | 13 | 228 | 3.2 | 4.8 | 0.00 | 0.00 | 3.63 | 93 | 1011.2 |
| 20260506181232 | 13 | 192 | 6.4 | 8.0 | 0.00 | 0.00 | 3.63 | 92 | 1010.8 |
| 20260506175731 | 13 | 207 | 8.0 | 11.3 | 0.00 | 0.00 | 3.63 | 92 | 1010.9 |
| 20260506174231 | 14 | 130 | 14.5 | 19.3 | 0.00 | 0.00 | 3.63 | 90 | 1010.8 |
| 20260506172731 | 14 | 196 | 11.3 | 14.5 | 0.00 | 0.00 | 3.63 | 89 | 1010.7 |
| 20260506171231 | 15 | 206 | 11.3 | 16.1 | 0.00 | 0.00 | 3.63 | 89 | 1010.6 |
| 20260506165731 | 15 | 200 | 8.0 | 9.7 | 0.00 | 0.00 | 3.63 | 89 | 1010.6 |
| 20260506164231 | 15 | 223 | 12.9 | 16.1 | 0.00 | 0.00 | 3.63 | 89 | 1010.5 |
| 20260506162730 | 15 | 177 | 14.5 | 17.7 | 0.00 | 0.00 | 3.63 | 87 | 1010.5 |
| 20260506161230 | 16 | 211 | 6.4 | 8.0 | 0.00 | 0.00 | 3.63 | 86 | 1010.5 |
| 20260506155730 | 15 | 207 | 12.9 | 17.7 | 0.00 | 0.00 | 3.63 | 92 | 1010.3 |
| 20260506154230 | 15 | 197 | 12.9 | 16.1 | 0.00 | 0.00 | 3.63 | 91 | 1010.5 |
| 20260506152729 | 15 | 215 | 9.7 | 12.9 | 0.00 | 0.00 | 3.63 | 93 | 1010.6 |
| 20260506151229 | 15 | 225 | 9.7 | 12.9 | 0.00 | 0.00 | 3.63 | 92 | 1010.3 |
| 20260506145729 | 17 | 216 | 14.5 | 22.5 | 0.00 | 0.00 | 3.63 | 86 | 1010.4 |
| 20260506144228 | 17 | 193 | 12.9 | 17.7 | 0.00 | 0.00 | 3.63 | 87 | 1010.3 |
| 20260506142728 | 16 | 234 | 9.7 | 11.3 | 0.00 | 0.00 | 3.63 | 89 | 1010.2 |
| 20260506141228 | 17 | 185 | 8.0 | 11.3 | 0.00 | 0.00 | 3.63 | 86 | 1010.1 |
| 20260506135728 | 17 | 202 | 12.9 | 19.3 | 0.00 | 0.00 | 3.63 | 88 | 1010.2 |
| 20260506134227 | 17 | 184 | 12.9 | 14.5 | 0.00 | 0.00 | 3.63 | 90 | 1010.4 |
| 20260506132727 | 17 | 265 | 11.3 | 12.9 | 0.00 | 0.00 | 3.63 | 91 | 1010.7 |
| 20260506131227 | 16 | 166 | 14.5 | 17.7 | 0.00 | 0.00 | 3.63 | 94 | 1010.4 |
| 20260506125727 | 16 | 193 | 8.0 | 14.5 | 0.00 | 0.00 | 3.63 | 93 | 1010.5 |
| 20260506124226 | 16 | 150 | 9.7 | 16.1 | 0.00 | 0.00 | 3.63 | 92 | 1010.6 |
| 20260506122726 | 16 | 214 | 14.5 | 17.7 | 0.00 | 0.00 | 3.63 | 90 | 1010.6 |
| 20260506121226 | 16 | 188 | 11.3 | 14.5 | 0.00 | 0.00 | 3.63 | 91 | 1010.4 |
| 20260506115725 | 17 | 163 | 12.9 | 14.5 | 0.00 | 0.00 | 3.63 | 86 | 1010.4 |
| 20260506114225 | 16 | 159 | 8.0 | 14.5 | 0.00 | 0.00 | 3.63 | 91 | 1010.4 |
| 20260506112725 | 17 | 175 | 14.5 | 17.7 | 0.00 | 0.00 | 3.63 | 88 | 1010.3 |
| 20260506111224 | 16 | 225 | 9.7 | 11.3 | 0.00 | 0.00 | 3.63 | 92 | 1010.3 |
| 20260506105724 | 15 | 209 | 16.1 | 17.7 | 0.00 | 0.00 | 3.63 | 95 | 1010.5 |
| 20260506104223 | 15 | 172 | 12.9 | 16.1 | 0.00 | 0.00 | 3.63 | 99 | 1010.1 |
| 20260506102723 | 14 | 212 | 14.5 | 17.7 | 0.00 | 0.00 | 3.63 | 99 | 1010.3 |
| 20260506101223 | 15 | 222 | 17.7 | 24.1 | 0.00 | 0.00 | 3.63 | 99 | 1010.0 |
| 20260506095722 | 15 | 201 | 25.7 | 30.6 | 0.00 | 0.00 | 3.63 | 99 | 1009.7 |
| 20260506094222 | 15 | 205 | 22.5 | 29.0 | 0.00 | 0.00 | 3.63 | 99 | 1009.7 |
| 20260506092722 | 15 | 229 | 30.6 | 33.8 | 0.00 | 0.00 | 3.63 | 99 | 1009.4 |
| 20260506091221 | 15 | 223 | 19.3 | 29.0 | 0.00 | 0.00 | 3.63 | 99 | 1009.3 |
| 20260506085721 | 15 | 206 | 24.1 | 27.4 | 0.00 | 0.00 | 3.63 | 99 | 1009.4 |
| 20260506084221 | 15 | 209 | 24.1 | 30.6 | 0.13 | 0.00 | 3.63 | 99 | 1009.2 |
| 20260506082720 | 15 | 220 | 32.2 | 40.2 | 0.00 | 0.00 | 3.58 | 99 | 1008.9 |
| 20260506081220 | 15 | 232 | 35.4 | 41.8 | 0.00 | 0.00 | 3.58 | 99 | 1008.7 |
| 20260506072719 | 15 | 235 | 25.7 | 32.2 | 0.00 | 0.00 | 3.58 | 99 | 1009.0 |
| 20260506071218 | 15 | 75 | 16.1 | 20.9 | 0.18 | 0.00 | 3.58 | 99 | 1008.9 |
| 20260506061217 | 13 | 204 | 12.9 | 14.5 | 0.13 | 0.00 | 3.56 | 99 | 1008.7 |
| 20260506051215 | 12 | 23 | 8.0 | 9.7 | 0.00 | 0.00 | 3.51 | 99 | 1008.5 |
| 20260506041311 | 12 | 354 | 9.7 | 12.9 | 0.00 | 0.00 | 2.87 | 99 | 1009.0 |
| 20260506035811 | 12 | 345 | 4.8 | 6.4 | 0.00 | 0.00 | 2.87 | 99 | 1009.2 |
| 20260506034311 | 12 | 339 | 3.2 | 4.8 | 0.00 | 0.00 | 2.87 | 99 | 1009.3 |
| 20260506032811 | 12 | 91 | 4.8 | 6.4 | 0.00 | 0.00 | 2.87 | 99 | 1009.4 |
| 20260506031310 | 12 | 267 | 0.0 | 0.0 | 0.18 | 0.00 | 2.87 | 99 | 1009.4 |
| 20260506030030 | 12 | 287 | 14.5 | 17.7 | 5.03 | 0.00 | 2.49 | 99 | 1009.2 |
| 20260506024310 | 12 | 283 | 11.3 | 12.9 | 1.80 | 0.00 | 1.42 | 99 | 1009.1 |
| 20260506022809 | 12 | 328 | 6.4 | 8.0 | 0.18 | 0.00 | 1.04 | 99 | 1008.9 |
| 20260506021309 | 12 | 101 | 4.8 | 8.0 | 0.79 | 0.00 | 0.99 | 99 | 1009.1 |
| 20260506015809 | 12 | 79 | 6.4 | 8.0 | 0.30 | 0.00 | 0.79 | 99 | 1009.8 |
| 20260506014308 | 12 | 52 | 8.0 | 9.7 | 0.13 | 0.00 | 0.69 | 99 | 1009.8 |